User: anonymous   Login
Location: Clatteringshaws Loch
(55.0508°N, 4.2860°W)
Time: 19:57:06
(UTC+01:00)
Language:

Sapphire - Orbit

View from above orbital plane
View from above orbital plane
View from above satellite
View from above satellite

Ground track
Ground track

The orbit data is extracted from the following two-line orbital elements,

1 26932U 01043D   17113.81220427 -.00000017 +00000-0 +25223-4 0  9996
2 26932 067.0563 233.7474 0008522 284.8586 075.1571 14.30246434812591
Epoch (UTC): 23 April 2017 19:29:34
Eccentricity: 0.0008522
inclination: 67.0563°
perigee height: 785 km
apogee height: 797 km
right ascension of ascending node: 233.7474°
argument of perigee: 284.8586°
revolutions per day: 14.30246434
mean anomaly at epoch: 75.1571°
orbit number at epoch: 81259

The dashed part of the orbit path shows where the satellite is in the earth's shadow,  

DLR